owner,sensor,date,latitude,longitude,vertical_datum,wind_speed,wind_to_direction,wind_speed_of_gust,qcFlag 
ADCP,ioos:station:wmo:42361:1,2012-03-01T00:30:00Z,27.5500,-92.4900,122.0,5.7,191.0,99.0,'11111222,11111222,11144222' 
ADCP,ioos:station:wmo:42361:1,2012-03-01T01:30:00Z,27.5500,-92.4900,122.0,6.7,183.0,99.0,'11111222,11111222,11144222' 
ADCP,ioos:station:wmo:42361:1,2012-03-01T02:30:00Z,27.5500,-92.4900,122.0,7.5,187.0,99.0,'11111222,11111222,11144222' 
ADCP,ioos:station:wmo:42361:1,2012-03-01T03:30:00Z,27.5500,-92.4900,122.0,7.8,185.0,99.0,'11111222,11111222,11144222' 
ADCP,ioos:station:wmo:42361:1,2012-03-01T04:30:00Z,27.5500,-92.4900,122.0,8.8,190.0,99.0,'11111222,11111222,11144222' 
ADCP,ioos:station:wmo:42361:1,2012-03-01T05:30:00Z,27.5500,-92.4900,122.0,7.9,190.0,99.0,'11111222,11111222,11144222' 
ADCP,ioos:station:wmo:42361:1,2012-03-01T06:30:00Z,27.5500,-92.4900,122.0,8.5,190.0,99.0,'11111222,11111222,11144222' 
ADCP,ioos:station:wmo:42361:1,2012-03-01T07:30:00Z,27.5500,-92.4900,122.0,10.0,191.0,99.0,'11111222,11111222,11144222' 
ADCP,ioos:station:wmo:42361:1,2012-03-01T08:30:00Z,27.5500,-92.4900,122.0,8.5,196.0,99.0,'11111222,11111222,11144222' 
ADCP,ioos:station:wmo:42361:1,2012-03-01T09:30:00Z,27.5500,-92.4900,122.0,9.7,194.0,99.0,'11111222,11111222,11144222' 
ADCP,ioos:station:wmo:42361:1,2012-03-01T10:30:00Z,27.5500,-92.4900,122.0,9.6,198.0,99.0,'11111222,11111222,11144222' 
ADCP,ioos:station:wmo:42361:1,2012-03-01T11:30:00Z,27.5500,-92.4900,122.0,8.1,195.0,99.0,'11111222,11111222,11144222' 
ADCP,ioos:station:wmo:42361:1,2012-03-01T12:30:00Z,27.5500,-92.4900,122.0,8.0,183.0,99.0,'11111222,11111222,11144222' 
ADCP,ioos:station:wmo:42361:1,2012-03-01T13:30:00Z,27.5500,-92.4900,122.0,7.2,173.0,99.0,'11111222,11111222,11144222' 
ADCP,ioos:station:wmo:42361:1,2012-03-01T14:30:00Z,27.5500,-92.4900,122.0,4.6,176.0,99.0,'11111222,11111222,11144222' 
ADCP,ioos:station:wmo:42361:1,2012-03-01T15:30:00Z,27.5500,-92.4900,122.0,6.2,185.0,99.0,'11111222,11111222,11144222' 
ADCP,ioos:station:wmo:42361:1,2012-03-01T16:30:00Z,27.5500,-92.4900,122.0,4.8,187.0,99.0,'11111222,11111222,11144222' 
ADCP,ioos:station:wmo:42361:1,2012-03-01T17:30:00Z,27.5500,-92.4900,122.0,4.3,174.0,99.0,'11111222,11111222,11144222' 
ADCP,ioos:station:wmo:42361:1,2012-03-01T18:30:00Z,27.5500,-92.4900,122.0,5.7,180.0,99.0,'11111222,11111222,11144222' 
ADCP,ioos:station:wmo:42361:1,2012-03-01T19:30:00Z,27.5500,-92.4900,122.0,4.6,176.0,99.0,'11111222,11111222,11144222' 
ADCP,ioos:station:wmo:42361:1,2012-03-01T20:30:00Z,27.5500,-92.4900,122.0,5.4,170.0,99.0,'11111222,11111222,11144222' 
ADCP,ioos:station:wmo:42361:1,2012-03-01T21:30:00Z,27.5500,-92.4900,122.0,5.8,163.0,99.0,'11111222,11111222,11144222' 
ADCP,ioos:station:wmo:42361:1,2012-03-01T22:30:00Z,27.5500,-92.4900,122.0,7.6,166.0,99.0,'11111222,11111222,11144222' 
ADCP,ioos:station:wmo:42361:1,2012-03-01T23:30:00Z,27.5500,-92.4900,122.0,8.5,176.0,99.0,'11111222,11111222,11144222' 
ADCP,ioos:station:wmo:42361:1,2012-03-02T00:30:00Z,27.5500,-92.4900,122.0,9.4,173.0,99.0,'11111222,11111222,11144222' 
ADCP,ioos:station:wmo:42361:1,2012-03-02T01:30:00Z,27.5500,-92.4900,122.0,10.8,170.0,99.0,'11111222,11111222,11144222' 
ADCP,ioos:station:wmo:42361:1,2012-03-02T02:30:00Z,27.5500,-92.4900,122.0,11.1,175.0,99.0,'11111222,11111222,11144222' 
ADCP,ioos:station:wmo:42361:1,2012-03-02T03:30:00Z,27.5500,-92.4900,122.0,11.1,180.0,99.0,'11111222,11111222,11144222' 
ADCP,ioos:station:wmo:42361:1,2012-03-02T04:30:00Z,27.5500,-92.4900,122.0,12.1,177.0,99.0,'11111222,11111222,11144222' 
ADCP,ioos:station:wmo:42361:1,2012-03-02T05:30:00Z,27.5500,-92.4900,122.0,12.1,178.0,99.0,'11111222,11111222,11144222' 
ADCP,ioos:station:wmo:42361:1,2012-03-02T06:30:00Z,27.5500,-92.4900,122.0,12.0,180.0,99.0,'11111222,11111222,11144222' 
ADCP,ioos:station:wmo:42361:1,2012-03-02T07:30:00Z,27.5500,-92.4900,122.0,11.4,180.0,99.0,'11111222,11111222,11144222' 
ADCP,ioos:station:wmo:42361:1,2012-03-02T08:30:00Z,27.5500,-92.4900,122.0,10.5,194.0,99.0,'11111222,11111222,11144222' 
ADCP,ioos:station:wmo:42361:1,2012-03-02T09:30:00Z,27.5500,-92.4900,122.0,10.3,192.0,99.0,'11111222,11111222,11144222' 
ADCP,ioos:station:wmo:42361:1,2012-03-02T10:30:00Z,27.5500,-92.4900,122.0,10.2,190.0,99.0,'11111222,11111222,11144222' 
ADCP,ioos:station:wmo:42361:1,2012-03-02T11:30:00Z,27.5500,-92.4900,122.0,10.6,182.0,99.0,'11111222,11111222,11144222' 
ADCP,ioos:station:wmo:42361:1,2012-03-02T12:30:00Z,27.5500,-92.4900,122.0,11.1,178.0,99.0,'11111222,11111222,11144222' 
ADCP,ioos:station:wmo:42361:1,2012-03-02T13:30:00Z,27.5500,-92.4900,122.0,9.1,171.0,99.0,'11111222,11111222,11144222' 
ADCP,ioos:station:wmo:42361:1,2012-03-02T14:30:00Z,27.5500,-92.4900,122.0,9.8,177.0,99.0,'11111222,11111222,11144222' 
ADCP,ioos:station:wmo:42361:1,2012-03-02T15:30:00Z,27.5500,-92.4900,122.0,10.5,180.0,99.0,'11111222,11111222,11144222' 
ADCP,ioos:station:wmo:42361:1,2012-03-02T16:30:00Z,27.5500,-92.4900,122.0,10.5,180.0,99.0,'11111222,11111222,11144222' 
ADCP,ioos:station:wmo:42361:1,2012-03-02T17:30:00Z,27.5500,-92.4900,122.0,10.9,181.0,99.0,'11111222,11111222,11144222' 
ADCP,ioos:station:wmo:42361:1,2012-03-02T18:30:00Z,27.5500,-92.4900,122.0,12.4,189.0,99.0,'11111222,11111222,11144222' 
ADCP,ioos:station:wmo:42361:1,2012-03-02T19:30:00Z,27.5500,-92.4900,122.0,12.4,189.0,99.0,'11111222,11111222,11144222' 
ADCP,ioos:station:wmo:42361:1,2012-03-02T20:30:00Z,27.5500,-92.4900,122.0,11.9,181.0,99.0,'11111222,11111222,11144222' 
ADCP,ioos:station:wmo:42361:1,2012-03-02T21:30:00Z,27.5500,-92.4900,122.0,10.6,180.0,99.0,'11111222,11111222,11144222' 
ADCP,ioos:station:wmo:42361:1,2012-03-02T22:30:00Z,27.5500,-92.4900,122.0,10.3,180.0,99.0,'11111222,11111222,11144222' 
ADCP,ioos:station:wmo:42361:1,2012-03-02T23:30:00Z,27.5500,-92.4900,122.0,9.8,180.0,99.0,'11111222,11111222,11144222' 
ADCP,ioos:station:wmo:42361:1,2012-03-03T00:30:00Z,27.5500,-92.4900,122.0,10.3,172.0,99.0,'11111222,11111222,11144222' 
ADCP,ioos:station:wmo:42361:1,2012-03-03T01:30:00Z,27.5500,-92.4900,122.0,11.1,170.0,99.0,'11111222,11111222,11144222' 
ADCP,ioos:station:wmo:42361:1,2012-03-03T02:30:00Z,27.5500,-92.4900,122.0,11.9,170.0,99.0,'11111222,11111222,11144222' 
ADCP,ioos:station:wmo:42361:1,2012-03-03T03:30:00Z,27.5500,-92.4900,122.0,12.1,170.0,99.0,'11111222,11111222,11144222' 
ADCP,ioos:station:wmo:42361:1,2012-03-03T04:30:00Z,27.5500,-92.4900,122.0,11.8,170.0,99.0,'11111222,11111222,11144222' 
ADCP,ioos:station:wmo:42361:1,2012-03-03T05:30:00Z,27.5500,-92.4900,122.0,11.8,170.0,99.0,'11111222,11111222,11144222' 
ADCP,ioos:station:wmo:42361:1,2012-03-03T06:30:00Z,27.5500,-92.4900,122.0,9.7,171.0,99.0,'11111222,11111222,11144222' 
ADCP,ioos:station:wmo:42361:1,2012-03-03T07:30:00Z,27.5500,-92.4900,122.0,9.7,170.0,99.0,'11111222,11111222,11144222' 
ADCP,ioos:station:wmo:42361:1,2012-03-03T08:30:00Z,27.5500,-92.4900,122.0,8.1,162.0,99.0,'11111222,11111222,11144222' 
ADCP,ioos:station:wmo:42361:1,2012-03-03T09:30:00Z,27.5500,-92.4900,122.0,8.2,163.0,99.0,'11111222,11111222,11144222' 
ADCP,ioos:station:wmo:42361:1,2012-03-03T10:30:00Z,27.5500,-92.4900,122.0,7.3,176.0,99.0,'11111222,11111222,11144222' 
ADCP,ioos:station:wmo:42361:1,2012-03-03T11:30:00Z,27.5500,-92.4900,122.0,6.2,182.0,99.0,'11111222,11111222,11144222' 
ADCP,ioos:station:wmo:42361:1,2012-03-03T12:30:00Z,27.5500,-92.4900,122.0,3.6,189.0,99.0,'11111222,11111222,11144222' 
ADCP,ioos:station:wmo:42361:1,2012-03-03T13:30:00Z,27.5500,-92.4900,122.0,3.0,212.0,99.0,'11111222,11111222,11144222' 
ADCP,ioos:station:wmo:42361:1,2012-03-03T14:30:00Z,27.5500,-92.4900,122.0,3.2,230.0,99.0,'11111222,11111222,11144222' 
ADCP,ioos:station:wmo:42361:1,2012-03-03T15:30:00Z,27.5500,-92.4900,122.0,4.1,226.0,99.0,'11111222,11111222,11144222' 
ADCP,ioos:station:wmo:42361:1,2012-03-03T16:30:00Z,27.5500,-92.4900,122.0,6.1,230.0,99.0,'11111222,11111222,11144222' 
ADCP,ioos:station:wmo:42361:1,2012-03-03T17:30:00Z,27.5500,-92.4900,122.0,6.9,250.0,99.0,'11111222,11111222,11144222' 
ADCP,ioos:station:wmo:42361:1,2012-03-03T18:30:00Z,27.5500,-92.4900,122.0,8.1,292.0,99.0,'11111222,11111222,11144222' 
ADCP,ioos:station:wmo:42361:1,2012-03-03T19:30:00Z,27.5500,-92.4900,122.0,12.9,18.0,99.0,'11111222,11111222,11144222' 
ADCP,ioos:station:wmo:42361:1,2012-03-03T20:30:00Z,27.5500,-92.4900,122.0,16.0,13.0,99.0,'11111222,11111222,11144222' 
ADCP,ioos:station:wmo:42361:1,2012-03-03T21:30:00Z,27.5500,-92.4900,122.0,16.7,15.0,99.0,'11111222,11111222,11144222' 
ADCP,ioos:station:wmo:42361:1,2012-03-03T22:30:00Z,27.5500,-92.4900,122.0,15.9,15.0,99.0,'11111222,11111222,11144222' 
ADCP,ioos:station:wmo:42361:1,2012-03-03T23:30:00Z,27.5500,-92.4900,122.0,15.8,10.0,99.0,'11111222,11111222,11144222' 
ADCP,ioos:station:wmo:42361:1,2012-03-04T00:30:00Z,27.5500,-92.4900,122.0,16.4,10.0,99.0,'11111222,11111222,11144222' 
ADCP,ioos:station:wmo:42361:1,2012-03-04T01:30:00Z,27.5500,-92.4900,122.0,15.7,10.0,99.0,'11111222,11111222,11144222' 
ADCP,ioos:station:wmo:42361:1,2012-03-04T02:30:00Z,27.5500,-92.4900,122.0,17.2,9.0,99.0,'11111222,11111222,11144222' 
ADCP,ioos:station:wmo:42361:1,2012-03-04T03:30:00Z,27.5500,-92.4900,122.0,17.9,10.0,99.0,'11111222,11111222,11144222' 
ADCP,ioos:station:wmo:42361:1,2012-03-04T04:30:00Z,27.5500,-92.4900,122.0,18.6,10.0,99.0,'11111222,11111222,11144222' 
ADCP,ioos:station:wmo:42361:1,2012-03-04T05:30:00Z,27.5500,-92.4900,122.0,17.5,10.0,99.0,'11111222,11111222,11144222' 
ADCP,ioos:station:wmo:42361:1,2012-03-04T06:30:00Z,27.5500,-92.4900,122.0,16.4,10.0,99.0,'11111222,11111222,11144222' 
ADCP,ioos:station:wmo:42361:1,2012-03-04T07:30:00Z,27.5500,-92.4900,122.0,14.4,3.0,99.0,'11111222,11111222,11144222' 
ADCP,ioos:station:wmo:42361:1,2012-03-04T08:30:00Z,27.5500,-92.4900,122.0,12.8,356.0,99.0,'11111222,11111222,11144222' 
ADCP,ioos:station:wmo:42361:1,2012-03-04T09:30:00Z,27.5500,-92.4900,122.0,12.8,356.0,99.0,'11111222,11111222,11144222' 
ADCP,ioos:station:wmo:42361:1,2012-03-04T10:30:00Z,27.5500,-92.4900,122.0,11.6,350.0,99.0,'11111222,11111222,11144222' 
ADCP,ioos:station:wmo:42361:1,2012-03-04T11:30:00Z,27.5500,-92.4900,122.0,12.4,1.0,99.0,'11111222,11111222,11144222' 
ADCP,ioos:station:wmo:42361:1,2012-03-04T12:30:00Z,27.5500,-92.4900,122.0,12.1,7.0,99.0,'11111222,11111222,11144222' 
ADCP,ioos:station:wmo:42361:1,2012-03-04T13:30:00Z,27.5500,-92.4900,122.0,10.9,6.0,99.0,'11111222,11111222,11144222' 
ADCP,ioos:station:wmo:42361:1,2012-03-04T14:30:00Z,27.5500,-92.4900,122.0,10.8,11.0,99.0,'11111222,11111222,11144222' 
ADCP,ioos:station:wmo:42361:1,2012-03-04T15:30:00Z,27.5500,-92.4900,122.0,9.6,13.0,99.0,'11111222,11111222,11144222' 
ADCP,ioos:station:wmo:42361:1,2012-03-04T16:30:00Z,27.5500,-92.4900,122.0,8.1,13.0,99.0,'11111222,11111222,11144222' 
ADCP,ioos:station:wmo:42361:1,2012-03-04T17:30:00Z,27.5500,-92.4900,122.0,7.3,10.0,99.0,'11111222,11111222,11144222' 
ADCP,ioos:station:wmo:42361:1,2012-03-04T18:30:00Z,27.5500,-92.4900,122.0,5.7,16.0,99.0,'11111222,11111222,11144222' 
ADCP,ioos:station:wmo:42361:1,2012-03-04T19:30:00Z,27.5500,-92.4900,122.0,3.8,20.0,99.0,'11111222,11111222,11144222' 
ADCP,ioos:station:wmo:42361:1,2012-03-04T20:30:00Z,27.5500,-92.4900,122.0,3.2,18.0,99.0,'11111222,11111222,11144222' 
ADCP,ioos:station:wmo:42361:1,2012-03-04T21:30:00Z,27.5500,-92.4900,122.0,2.9,13.0,99.0,'11111222,11111222,11144222' 
ADCP,ioos:station:wmo:42361:1,2012-03-04T22:30:00Z,27.5500,-92.4900,122.0,2.3,353.0,99.0,'11111222,11111222,11144222' 
ADCP,ioos:station:wmo:42361:1,2012-03-04T23:30:00Z,27.5500,-92.4900,122.0,1.1,335.0,99.0,'11111222,11111222,11144222' 
ADCP,ioos:station:wmo:42361:1,2012-03-05T00:30:00Z,27.5500,-92.4900,122.0,1.0,314.0,99.0,'11111222,11111222,11144222' 
ADCP,ioos:station:wmo:42361:1,2012-03-05T01:30:00Z,27.5500,-92.4900,122.0,1.5,294.0,99.0,'11111222,11111222,11144222' 
ADCP,ioos:station:wmo:42361:1,2012-03-05T02:30:00Z,27.5500,-92.4900,122.0,2.2,251.0,99.0,'11111222,11111222,11144222' 
ADCP,ioos:station:wmo:42361:1,2012-03-05T03:30:00Z,27.5500,-92.4900,122.0,2.6,242.0,99.0,'11111222,11111222,11144222' 
ADCP,ioos:station:wmo:42361:1,2012-03-05T04:30:00Z,27.5500,-92.4900,122.0,3.6,248.0,99.0,'11111222,11111222,11144222' 
ADCP,ioos:station:wmo:42361:1,2012-03-05T05:30:00Z,27.5500,-92.4900,122.0,3.3,261.0,99.0,'11111222,11111222,11144222' 
ADCP,ioos:station:wmo:42361:1,2012-03-05T06:30:00Z,27.5500,-92.4900,122.0,3.7,262.0,99.0,'11111222,11111222,11144222' 
ADCP,ioos:station:wmo:42361:1,2012-03-05T07:30:00Z,27.5500,-92.4900,122.0,3.1,253.0,99.0,'11111222,11111222,11144222' 
ADCP,ioos:station:wmo:42361:1,2012-03-05T08:30:00Z,27.5500,-92.4900,122.0,2.2,263.0,99.0,'11111222,11111222,11144222' 
ADCP,ioos:station:wmo:42361:1,2012-03-05T09:30:00Z,27.5500,-92.4900,122.0,1.1,307.0,99.0,'11111222,11111222,11144222' 
ADCP,ioos:station:wmo:42361:1,2012-03-05T10:30:00Z,27.5500,-92.4900,122.0,0.2,349.0,99.0,'11111222,11111222,11144222' 
ADCP,ioos:station:wmo:42361:1,2012-03-05T11:30:00Z,27.5500,-92.4900,122.0,0.7,1.0,99.0,'11111222,11111222,11144222' 
ADCP,ioos:station:wmo:42361:1,2012-03-05T12:30:00Z,27.5500,-92.4900,122.0,1.7,24.0,99.0,'11111222,11111222,11144222' 
ADCP,ioos:station:wmo:42361:1,2012-03-05T13:30:00Z,27.5500,-92.4900,122.0,3.0,38.0,99.0,'11111222,11111222,11144222' 
ADCP,ioos:station:wmo:42361:1,2012-03-05T14:30:00Z,27.5500,-92.4900,122.0,3.3,51.0,99.0,'11111222,11111222,11144222' 
ADCP,ioos:station:wmo:42361:1,2012-03-05T15:30:00Z,27.5500,-92.4900,122.0,3.4,73.0,99.0,'11111222,11111222,11144222' 
ADCP,ioos:station:wmo:42361:1,2012-03-05T16:30:00Z,27.5500,-92.4900,122.0,3.1,92.0,99.0,'11111222,11111222,11144222' 
ADCP,ioos:station:wmo:42361:1,2012-03-05T17:30:00Z,27.5500,-92.4900,122.0,3.1,94.0,99.0,'11111222,11111222,11144222' 
ADCP,ioos:station:wmo:42361:1,2012-03-05T18:30:00Z,27.5500,-92.4900,122.0,3.6,99.0,99.0,'11111222,11111222,11144222' 
ADCP,ioos:station:wmo:42361:1,2012-03-05T19:30:00Z,27.5500,-92.4900,122.0,3.4,109.0,99.0,'11111222,11111222,11144222' 
ADCP,ioos:station:wmo:42361:1,2012-03-05T20:30:00Z,27.5500,-92.4900,122.0,3.4,117.0,99.0,'11111222,11111222,11144222' 
ADCP,ioos:station:wmo:42361:1,2012-03-05T21:30:00Z,27.5500,-92.4900,122.0,3.4,109.0,99.0,'11111222,11111222,11144222' 
ADCP,ioos:station:wmo:42361:1,2012-03-05T22:30:00Z,27.5500,-92.4900,122.0,3.3,108.0,99.0,'11111222,11111222,11144222' 
ADCP,ioos:station:wmo:42361:1,2012-03-05T23:30:00Z,27.5500,-92.4900,122.0,3.8,107.0,99.0,'11111222,11111222,11144222' 
ADCP,ioos:station:wmo:42361:1,2012-03-06T00:30:00Z,27.5500,-92.4900,122.0,4.9,107.0,99.0,'11111222,11111222,11144222' 
ADCP,ioos:station:wmo:42361:1,2012-03-06T01:30:00Z,27.5500,-92.4900,122.0,5.5,109.0,99.0,'11111222,11111222,11144222' 
ADCP,ioos:station:wmo:42361:1,2012-03-06T02:30:00Z,27.5500,-92.4900,122.0,6.2,118.0,99.0,'11111222,11111222,11144222' 
ADCP,ioos:station:wmo:42361:1,2012-03-06T03:30:00Z,27.5500,-92.4900,122.0,7.1,119.0,99.0,'11111222,11111222,11144222' 
ADCP,ioos:station:wmo:42361:1,2012-03-06T04:30:00Z,27.5500,-92.4900,122.0,7.0,128.0,99.0,'11111222,11111222,11144222' 
ADCP,ioos:station:wmo:42361:1,2012-03-06T05:30:00Z,27.5500,-92.4900,122.0,7.0,131.0,99.0,'11111222,11111222,11144222' 
ADCP,ioos:station:wmo:42361:1,2012-03-06T06:30:00Z,27.5500,-92.4900,122.0,7.9,137.0,99.0,'11111222,11111222,11144222' 
ADCP,ioos:station:wmo:42361:1,2012-03-06T07:30:00Z,27.5500,-92.4900,122.0,7.4,144.0,99.0,'11111222,11111222,11144222' 
ADCP,ioos:station:wmo:42361:1,2012-03-06T08:30:00Z,27.5500,-92.4900,122.0,6.4,141.0,99.0,'11111222,11111222,11144222' 
ADCP,ioos:station:wmo:42361:1,2012-03-06T09:30:00Z,27.5500,-92.4900,122.0,6.4,139.0,99.0,'11111222,11111222,11144222' 
ADCP,ioos:station:wmo:42361:1,2012-03-06T10:30:00Z,27.5500,-92.4900,122.0,6.9,143.0,99.0,'11111222,11111222,11144222' 
ADCP,ioos:station:wmo:42361:1,2012-03-06T11:30:00Z,27.5500,-92.4900,122.0,7.7,143.0,99.0,'11111222,11111222,11144222' 
ADCP,ioos:station:wmo:42361:1,2012-03-06T12:30:00Z,27.5500,-92.4900,122.0,8.2,146.0,99.0,'11111222,11111222,11144222' 
ADCP,ioos:station:wmo:42361:1,2012-03-06T13:30:00Z,27.5500,-92.4900,122.0,8.6,138.0,99.0,'11111222,11111222,11144222' 
ADCP,ioos:station:wmo:42361:1,2012-03-06T14:30:00Z,27.5500,-92.4900,122.0,9.2,132.0,99.0,'11111222,11111222,11144222' 
ADCP,ioos:station:wmo:42361:1,2012-03-06T15:30:00Z,27.5500,-92.4900,122.0,10.2,131.0,99.0,'11111222,11111222,11144222' 
ADCP,ioos:station:wmo:42361:1,2012-03-06T16:30:00Z,27.5500,-92.4900,122.0,10.6,129.0,99.0,'11111222,11111222,11144222' 
ADCP,ioos:station:wmo:42361:1,2012-03-06T17:30:00Z,27.5500,-92.4900,122.0,9.6,136.0,99.0,'11111222,11111222,11144222' 
ADCP,ioos:station:wmo:42361:1,2012-03-06T18:30:00Z,27.5500,-92.4900,122.0,10.6,131.0,99.0,'11111222,11111222,11144222' 
ADCP,ioos:station:wmo:42361:1,2012-03-06T19:30:00Z,27.5500,-92.4900,122.0,11.1,130.0,99.0,'11111222,11111222,11144222' 
ADCP,ioos:station:wmo:42361:1,2012-03-06T20:30:00Z,27.5500,-92.4900,122.0,10.7,128.0,99.0,'11111222,11111222,11144222' 
ADCP,ioos:station:wmo:42361:1,2012-03-06T21:30:00Z,27.5500,-92.4900,122.0,12.4,125.0,99.0,'11111222,11111222,11144222' 
ADCP,ioos:station:wmo:42361:1,2012-03-06T22:30:00Z,27.5500,-92.4900,122.0,12.6,125.0,99.0,'11111222,11111222,11144222' 
ADCP,ioos:station:wmo:42361:1,2012-03-06T23:30:00Z,27.5500,-92.4900,122.0,12.1,123.0,99.0,'11111222,11111222,11144222' 
ADCP,ioos:station:wmo:42361:1,2012-03-07T00:30:00Z,27.5500,-92.4900,122.0,12.3,127.0,99.0,'11111222,11111222,11144222' 
ADCP,ioos:station:wmo:42361:1,2012-03-07T01:30:00Z,27.5500,-92.4900,122.0,12.4,129.0,99.0,'11111222,11111222,11144222' 
ADCP,ioos:station:wmo:42361:1,2012-03-07T02:30:00Z,27.5500,-92.4900,122.0,12.6,125.0,99.0,'11111222,11111222,11144222' 
ADCP,ioos:station:wmo:42361:1,2012-03-07T03:30:00Z,27.5500,-92.4900,122.0,12.1,130.0,99.0,'11111222,11111222,11144222' 
ADCP,ioos:station:wmo:42361:1,2012-03-07T04:30:00Z,27.5500,-92.4900,122.0,12.3,138.0,99.0,'11111222,11111222,11144222' 
ADCP,ioos:station:wmo:42361:1,2012-03-07T05:30:00Z,27.5500,-92.4900,122.0,12.3,145.0,99.0,'11111222,11111222,11144222' 
ADCP,ioos:station:wmo:42361:1,2012-03-07T06:30:00Z,27.5500,-92.4900,122.0,11.8,143.0,99.0,'11111222,11111222,11144222' 
ADCP,ioos:station:wmo:42361:1,2012-03-07T07:30:00Z,27.5500,-92.4900,122.0,11.1,143.0,99.0,'11111222,11111222,11144222' 
ADCP,ioos:station:wmo:42361:1,2012-03-07T08:30:00Z,27.5500,-92.4900,122.0,12.3,148.0,99.0,'11111222,11111222,11144222' 
ADCP,ioos:station:wmo:42361:1,2012-03-07T09:30:00Z,27.5500,-92.4900,122.0,12.2,150.0,99.0,'11111222,11111222,11144222' 
ADCP,ioos:station:wmo:42361:1,2012-03-07T10:30:00Z,27.5500,-92.4900,122.0,10.8,149.0,99.0,'11111222,11111222,11144222' 
ADCP,ioos:station:wmo:42361:1,2012-03-07T11:30:00Z,27.5500,-92.4900,122.0,11.0,150.0,99.0,'11111222,11111222,11144222' 
ADCP,ioos:station:wmo:42361:1,2012-03-07T12:30:00Z,27.5500,-92.4900,122.0,10.2,148.0,99.0,'11111222,11111222,11144222' 
ADCP,ioos:station:wmo:42361:1,2012-03-07T13:30:00Z,27.5500,-92.4900,122.0,11.5,143.0,99.0,'11111222,11111222,11144222' 
ADCP,ioos:station:wmo:42361:1,2012-03-07T14:30:00Z,27.5500,-92.4900,122.0,11.6,150.0,99.0,'11111222,11111222,11144222' 
ADCP,ioos:station:wmo:42361:1,2012-03-07T15:30:00Z,27.5500,-92.4900,122.0,10.8,150.0,99.0,'11111222,11111222,11144222' 
ADCP,ioos:station:wmo:42361:1,2012-03-07T16:30:00Z,27.5500,-92.4900,122.0,11.1,150.0,99.0,'11111222,11111222,11144222' 
ADCP,ioos:station:wmo:42361:1,2012-03-07T17:30:00Z,27.5500,-92.4900,122.0,9.3,150.0,99.0,'11111222,11111222,11144222' 
ADCP,ioos:station:wmo:42361:1,2012-03-07T18:30:00Z,27.5500,-92.4900,122.0,8.8,147.0,99.0,'11111222,11111222,11144222' 
ADCP,ioos:station:wmo:42361:1,2012-03-07T19:30:00Z,27.5500,-92.4900,122.0,10.7,144.0,99.0,'11111222,11111222,11144222' 
ADCP,ioos:station:wmo:42361:1,2012-03-07T20:30:00Z,27.5500,-92.4900,122.0,11.1,144.0,99.0,'11111222,11111222,11144222' 
ADCP,ioos:station:wmo:42361:1,2012-03-07T21:30:00Z,27.5500,-92.4900,122.0,11.4,140.0,99.0,'11111222,11111222,11144222' 
ADCP,ioos:station:wmo:42361:1,2012-03-07T22:30:00Z,27.5500,-92.4900,122.0,9.9,139.0,99.0,'11111222,11111222,11144222' 
ADCP,ioos:station:wmo:42361:1,2012-03-07T23:30:00Z,27.5500,-92.4900,122.0,11.6,132.0,99.0,'11111222,11111222,11144222' 
ADCP,ioos:station:wmo:42361:1,2012-03-08T00:30:00Z,27.5500,-92.4900,122.0,12.2,130.0,99.0,'11111222,11111222,11144222' 
ADCP,ioos:station:wmo:42361:1,2012-03-08T01:30:00Z,27.5500,-92.4900,122.0,13.0,132.0,99.0,'11111222,11111222,11144222' 
ADCP,ioos:station:wmo:42361:1,2012-03-08T02:30:00Z,27.5500,-92.4900,122.0,11.2,137.0,99.0,'11111222,11111222,11144222' 
ADCP,ioos:station:wmo:42361:1,2012-03-08T03:30:00Z,27.5500,-92.4900,122.0,11.3,133.0,99.0,'11111222,11111222,11144222' 
ADCP,ioos:station:wmo:42361:1,2012-03-08T04:30:00Z,27.5500,-92.4900,122.0,12.4,139.0,99.0,'11111222,11111222,11144222' 
ADCP,ioos:station:wmo:42361:1,2012-03-08T05:30:00Z,27.5500,-92.4900,122.0,12.6,136.0,99.0,'11111222,11111222,11144222' 
ADCP,ioos:station:wmo:42361:1,2012-03-08T06:30:00Z,27.5500,-92.4900,122.0,10.6,137.0,99.0,'11111222,11111222,11144222' 
ADCP,ioos:station:wmo:42361:1,2012-03-08T07:30:00Z,27.5500,-92.4900,122.0,10.9,140.0,99.0,'11111222,11111222,11144222' 
ADCP,ioos:station:wmo:42361:1,2012-03-08T08:30:00Z,27.5500,-92.4900,122.0,11.5,140.0,99.0,'11111222,11111222,11144222' 
ADCP,ioos:station:wmo:42361:1,2012-03-08T09:30:00Z,27.5500,-92.4900,122.0,12.8,145.0,99.0,'11111222,11111222,11144222' 
ADCP,ioos:station:wmo:42361:1,2012-03-08T10:30:00Z,27.5500,-92.4900,122.0,14.1,150.0,99.0,'11111222,11111222,11144222' 
ADCP,ioos:station:wmo:42361:1,2012-03-08T11:30:00Z,27.5500,-92.4900,122.0,14.9,150.0,99.0,'11111222,11111222,11144222' 
ADCP,ioos:station:wmo:42361:1,2012-03-08T12:30:00Z,27.5500,-92.4900,122.0,15.4,150.0,99.0,'11111222,11111222,11144222' 
ADCP,ioos:station:wmo:42361:1,2012-03-08T13:30:00Z,27.5500,-92.4900,122.0,14.3,150.0,99.0,'11111222,11111222,11144222' 
ADCP,ioos:station:wmo:42361:1,2012-03-08T14:30:00Z,27.5500,-92.4900,122.0,14.1,150.0,99.0,'11111222,11111222,11144222' 
ADCP,ioos:station:wmo:42361:1,2012-03-08T15:30:00Z,27.5500,-92.4900,122.0,13.3,150.0,99.0,'11111222,11111222,11144222' 
ADCP,ioos:station:wmo:42361:1,2012-03-08T16:30:00Z,27.5500,-92.4900,122.0,12.3,151.0,99.0,'11111222,11111222,11144222' 
ADCP,ioos:station:wmo:42361:1,2012-03-08T17:30:00Z,27.5500,-92.4900,122.0,11.9,159.0,99.0,'11111222,11111222,11144222' 
ADCP,ioos:station:wmo:42361:1,2012-03-08T18:30:00Z,27.5500,-92.4900,122.0,11.8,160.0,99.0,'11111222,11111222,11144222' 
ADCP,ioos:station:wmo:42361:1,2012-03-08T19:30:00Z,27.5500,-92.4900,122.0,10.7,169.0,99.0,'11111222,11111222,11144222' 
ADCP,ioos:station:wmo:42361:1,2012-03-08T20:30:00Z,27.5500,-92.4900,122.0,9.4,170.0,99.0,'11111222,11111222,11144222' 
ADCP,ioos:station:wmo:42361:1,2012-03-08T21:30:00Z,27.5500,-92.4900,122.0,9.6,162.0,99.0,'11111222,11111222,11144222' 
ADCP,ioos:station:wmo:42361:1,2012-03-08T22:30:00Z,27.5500,-92.4900,122.0,10.5,151.0,99.0,'11111222,11111222,11144222' 
ADCP,ioos:station:wmo:42361:1,2012-03-08T23:30:00Z,27.5500,-92.4900,122.0,10.5,150.0,99.0,'11111222,11111222,11144222' 
ADCP,ioos:station:wmo:42361:1,2012-03-09T00:30:00Z,27.5500,-92.4900,122.0,10.8,149.0,99.0,'11111222,11111222,11144222' 
ADCP,ioos:station:wmo:42361:1,2012-03-09T01:30:00Z,27.5500,-92.4900,122.0,10.4,141.0,99.0,'11111222,11111222,11144222' 
ADCP,ioos:station:wmo:42361:1,2012-03-09T02:30:00Z,27.5500,-92.4900,122.0,11.4,147.0,99.0,'11111222,11111222,11144222' 
ADCP,ioos:station:wmo:42361:1,2012-03-09T03:30:00Z,27.5500,-92.4900,122.0,11.7,150.0,99.0,'11111222,11111222,11144222' 
ADCP,ioos:station:wmo:42361:1,2012-03-09T04:30:00Z,27.5500,-92.4900,122.0,10.9,154.0,99.0,'11111222,11111222,11144222' 
ADCP,ioos:station:wmo:42361:1,2012-03-09T05:30:00Z,27.5500,-92.4900,122.0,11.0,165.0,99.0,'11111222,11111222,11144222' 
ADCP,ioos:station:wmo:42361:1,2012-03-09T06:30:00Z,27.5500,-92.4900,122.0,10.2,170.0,99.0,'11111222,11111222,11144222' 
ADCP,ioos:station:wmo:42361:1,2012-03-09T07:30:00Z,27.5500,-92.4900,122.0,9.4,171.0,99.0,'11111222,11111222,11144222' 